Regional Weather Roundup
Issued by NWS

Home | Current Version | Previous Version | Text Only | Print | Product List | Glossary On
Versions: 1 2 3 4 5 6 7 8 9 10 11 12 13 14 15 16 17 18 19 20 21 22 23 24 25 26 27 28 29 30 31 32 33 34 35 36 37 38 39 40 41 42 43 44 45 46 47 48 49 50
000
ASUS44 KFWD 202015
RWRTX
NORTH TEXAS HOURLY WEATHER ROUNDUP
NATIONAL WEATHER SERVICE FORT WORTH TX
300 PM CDT MON OCT 20 2014

NOTE: "FAIR" INDICATES FEW OR NO CLOUDS BELOW 12,000 FEET WITH NO
SIGNIFICANT WEATHER AND/OR OBSTRUCTIONS TO VISIBILITY.

TXZ118-119-202100-
DALLAS/FORT WORTH METROPLEX

CITY           SKY/WX    TMP DP  RH WIND       PRES   REMARKS
DFW AIRPORT    MOSUNNY   81  59  47 CALM      30.01F
DALLAS LOVE    MOSUNNY   80  60  50 VRB5      30.02F
FTW MEACHAM    MOSUNNY   81  60  48 CALM      30.01F
DAL-EXECUTIVE  SUNNY     80  59  48 CALM      30.02F
FTW-ALLIANCE   MOSUNNY   81  59  47 E6        30.01F
FTW-NAS-JRB    MOSUNNY   85  58  39 CALM      30.06F
FTW-SPINKS     MOSUNNY   82  57  42 CALM      30.04F
ARLINGTON      SUNNY     82  58  43 CALM      30.02F
GRAND PRAIRIE  SUNNY     81  63  54 MISG      30.03F
ADDISON        MOSUNNY   81  57  44 W5        30.03F
MESQUITE       MOSUNNY   79  57  47 NW5       30.02F
LANCASTER      SUNNY     80  57  44 NE3       30.03F
$$

TXZ091>094-102>105-117-120-121-131>134-202100-
NORTH CENTRAL TEXAS

CITY           SKY/WX    TMP DP  RH WIND       PRES   REMARKS
SHRMAN/DENISON SUNNY     79  63  58 CALM      30.04F
GAINESVILLE    PTSUNNY   80  61  51 MISG      30.04F
BOWIE          MOSUNNY   82  58  44 SW5       30.02F
BRIDGEPORT     SUNNY     83  59  44 CALM      30.03F
DECATUR        MOSUNNY   81  57  44 CALM      30.03F
DENTON         SUNNY     81  59  47 S5        30.01F
MCKINNEY       SUNNY     80  60  50 VRB3      30.02F
GREENVILLE     SUNNY     79  57  47 CALM      30.03F
ROCKWALL       SUNNY     79  61  54 NW6       30.02F
TERRELL        SUNNY     79  61  53 SE6       30.03F
WAXAHACHIE     MOSUNNY   81  60  48 CALM      30.03F
CLEBURNE       MOSUNNY   81  59  47 CALM      30.05F
GRANBURY       PTSUNNY   82  59  44 E3        30.04F
$$

TXZ083>090-098>101-113>116-127>130-139>142-154-155-202100-
WESTERN NORTH TEXAS

CITY           SKY/WX    TMP DP  RH WIND       PRES   REMARKS
WICHITA FALLS  PTSUNNY   83  59  44 W7        30.00F
WF-KICKAPOO    SUNNY     83  56  39 W5        30.02F
VERNON         SUNNY     84  55  37 CALM      30.01F
ABILENE        PTSUNNY   78  55  44 SE6       30.05F
ABILENE-DYESS  MOSUNNY   80  55  42 E3        30.04F
BRECKENRIDGE   CLOUDY    82  55  39 E5        30.03F HAZE
GRAHAM         MOSUNNY   83  59  44 N6        30.01F
MINERAL WELLS  SUNNY     80  57  45 W5        30.01F
STEPHENVILLE   MOSUNNY   80  57  45 S3        30.07F
COMANCHE       SUNNY     80  59  49 SE5       30.06F
BROWNWOOD      MOSUNNY   77  57  50 SE5       30.05F
COLEMAN        MOSUNNY   79  59  49 S7        30.06F
BRADY          PTSUNNY   77  52  41 NE6       30.05F
$$

TXZ143>147-156>162-174-175-202100-
CENTRAL TEXAS

CITY           SKY/WX    TMP DP  RH WIND       PRES   REMARKS
WACO           PTSUNNY   82  60  47 NE6       30.03F
WACO-TSTC      SUNNY     79  63  57 CALM      30.03F
WACO-MCGREGOR  MOSUNNY   81  57  44 N6        30.04F
HILLSBORO      PTSUNNY   81  57  44 CALM      30.03F
CORSICANA      MOSUNNY   79  60  52 SE6       30.04F
MEXIA          PTSUNNY   77  61  57 NE3       30.03F
HEARNE         PTSUNNY   79  62  56 N6        30.03F
CAMERON        MOSUNNY   80  61  52 CALM      30.03F
TEMPLE         MOSUNNY   81  57  44 CALM      30.03F
KILLEEN        PTSUNNY   81  55  41 VRB3      30.03F
KILLEEN-SKYLRK MOSUNNY   79  57  47 NE7       30.03F
FORT HOOD      MOSUNNY   81  60  48 NE7       30.03F
GATESVILLE     MOSUNNY   81  57  44 SE5       30.05F
HAMILTON       PTSUNNY   78  56  45 E7        30.05F
LAMPASAS       PTSUNNY   78  60  54 N3        30.04F
$$

TXZ095>097-106>112-122>126-135>138-148>153-164>167-202100-
EAST TEXAS

CITY           SKY/WX    TMP DP  RH WIND       PRES   REMARKS
PARIS          SUNNY     75  55  50 CALM      30.04F
SULPHUR SPRNGS   N/A     78  58  51 N3        30.06F
MOUNT PLEASANT MOSUNNY   77  56  47 W3        30.06F
MINEOLA        MOSUNNY   79  59  50 NW5       30.05F
TYLER          SUNNY     79  57  46 VRB5      30.04F
LONGVIEW       MOSUNNY   79  54  41 N5        30.03F
MARSHALL       MOSUNNY   78  53  41 N5        30.06F
ATHENS         SUNNY     77  59  53 CALM      30.02F
PALESTINE      MOSUNNY   77  60  55 N6        30.04F
JACKSONVILLE   MOSUNNY   76  56  48 NE9       30.06F
HENDERSON      SUNNY     78  52  40 NE3       30.05F
NACOGDOCHES    MOSUNNY   77  57  50 N6        30.04F
LUFKIN         MOSUNNY   81  57  43 MISG      30.03F
$$

SUPPLEMENTAL OBSERVATIONS (CENTRAL)

CITY           SKY/WX    TMP DP  RH WIND       PRES   REMARKS
LAKE TEXOMA      N/A     79  61  53 W2          N/A
CADDO GRASSLND   N/A    N/A N/A N/A S3          N/A
PAT MAYSE LAKE   N/A     77  57  50 S1          N/A
GREENVILLE       N/A     81  59  47 N2          N/A
CEDAR HILL       N/A     84  57  39 N2          N/A
PALESTINE        N/A     81  59  47 E3          N/A
LAKE LIMESTONE   N/A     79  59  50 N6          N/A
MCGREGOR         N/A     82  57  42 E5          N/A
TEMPLE           N/A     81  59  47 E3          N/A
$$

SUPPLEMENTAL OBSERVATIONS (WEST)

CITY           SKY/WX    TMP DP  RH WIND       PRES   REMARKS
MILLERS CREEK    N/A     81  63  54 S2          N/A
POSSUM KINGDOM   N/A     81  54  39 SE6         N/A
LBJ GRASSLAND    N/A     84  59  42 N3          N/A
GRANBURY         N/A     84  59  42 E5          N/A
COMANCHE         N/A     81  63  54 SW1         N/A
HAMBY            N/A     81  57  44 E5          N/A
IVIE RESERVOIR   N/A     81  55  41 E9          N/A
COLORADO BEND    N/A     77  57  50 E6          N/A
$$

SUPPLEMENTAL OBSERVATIONS (EAST)

CITY           SKY/WX    TMP DP  RH WIND       PRES   REMARKS
CLARKSVILLE      N/A     81  59  47 W1          N/A
TEXARKANA        N/A     79  52  38 SW3         N/A
LINDEN           N/A     81  55  41 NE1         N/A
CADDO LAKE       N/A     79  54  41 N3          N/A
GILMER           N/A     79  57  47 E3          N/A
HENDERSON        N/A     79  54  41 NE8         N/A
LUFKIN           N/A     79  57  47 MISG        N/A
N SABINE NF      N/A     79  54  41 MISG        N/A
$$

SUPPLEMENTAL OBSERVATIONS ARE A COLLECTION OF AUTOMATED INSTRUMENTS
THAT ARE MAINTAINED BY A VARIETY OF FEDERAL AND STATE AGENCIES.
CERTAIN ELEMENTS...SUCH AS HUMIDITY VALUES AND SUSTAINED WIND
SPEEDS...MAY BE APPROXIMATED.




USA.gov is the U.S. government's official web portal to all federal, state and local government web resources and services.